Andalusia, AL

6:31 PM CDT on July 20, 2017 (GMT -0500)
Andalusia

Weather History for K79J - March, 2014

Change the Weather History Date:

Saturday, March 15, 2014

  Actual Average (KCEW) Record (KCEW)
Temperature  
Mean Temperature 57 °F -  
Max Temperature 66 °F 73 °F 87 °F (2012)
Min Temperature 48 °F 47 °F 22 °F (1993)
Degree Days  
Heating Degree Days 8    
Growing Degree Days 7 (Base 50)    
Moisture  
Dew Point 53 °F    
Average Humidity 79    
Maximum Humidity 88    
Minimum Humidity 63    
Precipitation  
Precipitation 0.01 in - - ()
Sea Level Pressure  
Sea Level Pressure 30.07 in    
Wind  
Wind Speed 2 mph (SE)    
Max Wind Speed 6 mph    
Max Gust Speed -    
Visibility 8 miles    
Events Rain    
Averages and records for this station are not official NWS values.
T = Trace of Precipitation, MM = Missing Value Source: NWS Daily Summary

Daily Weather History Graph

Daily Weather History Graph

Search for Another Location

Airport or City:

Trip Planner

Search our weather history database for the weather conditions in past years. The results will help you decide how hot, cold, wet, or windy it might be!

Date:

Astronomy

Mar. 15, 2014 Rise Set
Actual Time 6:55 AM CDT 6:53 PM CDT
Civil Twilight 6:31 AM CDT 7:17 PM CDT
Nautical Twilight 6:03 AM CDT 7:46 PM CDT
Astronomical Twilight 5:35 AM CDT 8:14 PM CDT
Moon 6:13 PM CDT (3/15) 6:04 AM CDT (3/15)
Length of Visible Light 12h 46m
Length of Day
11h 58m
Waxing Gibbous, 99% of the Moon is Illuminated
Mar 15
Waxing Gibbous
Mar 16
Full
Mar 23
Last Quarter
Mar 30
New
Apr 7
First Quarter

Hourly Weather History & Observations

Time (CDT) Temp. Dew Point Humidity Pressure Visibility Wind Dir Wind Speed Gust Speed Precip Events Conditions
12:56 AM 48.9 °F 43.0 °F 80% 30.15 in 10.0 mi Calm Calm - N/A   Clear
1:56 AM 50.0 °F 45.0 °F 83% 30.13 in 10.0 mi Calm Calm - N/A   Overcast
2:56 AM 51.1 °F 46.0 °F 83% 30.12 in 10.0 mi SSE 3.5 mph - N/A   Mostly Cloudy
3:56 AM 51.1 °F 45.0 °F 80% 30.11 in 10.0 mi Calm Calm - N/A   Mostly Cloudy
4:56 AM 51.1 °F 46.0 °F 83% 30.11 in 10.0 mi Calm Calm - N/A   Mostly Cloudy
5:49 AM 51.8 °F 46.4 °F 82% 30.12 in 10.0 mi Calm Calm - N/A   Overcast
5:56 AM 52.0 °F 46.9 °F 83% 30.11 in 10.0 mi Calm Calm - N/A   Overcast
6:12 AM 51.8 °F 46.4 °F 82% 30.12 in 10.0 mi Calm Calm - N/A   Mostly Cloudy
6:56 AM 52.0 °F 46.9 °F 83% 30.12 in 10.0 mi Calm Calm - N/A   Mostly Cloudy
7:56 AM 53.1 °F 48.0 °F 83% 30.13 in 10.0 mi Calm Calm - N/A   Clear
8:56 AM 60.1 °F 50.0 °F 69% 30.13 in 10.0 mi SE 3.5 mph - N/A   Mostly Cloudy
9:56 AM 63.0 °F 52.0 °F 67% 30.13 in 10.0 mi Calm Calm - N/A   Overcast
10:56 AM 64.9 °F 52.0 °F 63% 30.13 in 10.0 mi SE 3.5 mph - N/A   Overcast
11:56 AM 64.9 °F 55.0 °F 70% 30.14 in 8.0 mi Calm Calm - 0.00 in Rain Light Rain
12:16 PM 64.4 °F 55.4 °F 73% 30.13 in 10.0 mi East 3.5 mph - 0.00 in   Overcast
12:56 PM 66.0 °F 55.0 °F 68% 30.11 in 10.0 mi ESE 3.5 mph - 0.00 in   Overcast
1:56 PM 66.9 °F 55.0 °F 66% 30.08 in 10.0 mi Calm Calm - N/A   Overcast
2:56 PM 66.9 °F 55.0 °F 66% 30.05 in 10.0 mi South 3.5 mph - N/A   Overcast
3:56 PM 64.9 °F 55.9 °F 73% 30.04 in 10.0 mi Calm Calm - N/A   Overcast
4:56 PM 64.0 °F 57.0 °F 78% 30.02 in 9.0 mi Calm Calm - N/A   Overcast
5:32 PM 64.4 °F 57.2 °F 77% 30.03 in 4.0 mi East 4.6 mph - 0.00 in Rain Light Rain
5:42 PM 62.6 °F 57.2 °F 82% 30.03 in 2.0 mi East 3.5 mph - 0.00 in Rain Light Rain
5:56 PM 63.0 °F 57.9 °F 84% 30.02 in 2.5 mi ESE 4.6 mph - 0.00 in Rain Light Rain
6:06 PM 62.6 °F 59.0 °F 88% 30.02 in 3.0 mi East 5.8 mph - 0.01 in Rain Light Rain
6:56 PM 62.1 °F 57.9 °F 86% 30.01 in 7.0 mi ESE 4.6 mph - 0.01 in   Overcast
7:56 PM 62.1 °F 57.9 °F 86% 30.00 in 5.0 mi Calm Calm - 0.00 in   Overcast
8:56 PM 61.0 °F 57.0 °F 87% 29.99 in 5.0 mi Calm Calm - N/A   Overcast
9:56 PM 61.0 °F 57.0 °F 87% 29.99 in 6.0 mi SSE 5.8 mph - N/A   Overcast
10:33 PM 62.6 °F 57.2 °F 82% 29.99 in 8.0 mi SE 5.8 mph - N/A   Overcast
10:41 PM 62.6 °F 57.2 °F 82% 29.98 in 8.0 mi SE 5.8 mph - N/A   Overcast
10:56 PM 62.1 °F 55.9 °F 80% 29.97 in 10.0 mi SE 5.8 mph - N/A   Overcast
11:56 PM 63.0 °F 55.9 °F 78% 29.94 in 10.0 mi SSE 5.8 mph - 0.00 in   Overcast